Flag for Colombia Weather past 2 weeks in Medellin, Colombia

61 °F

Passing clouds.

Feels Like: 61 °F
Forecast: 64 / 86 °F
Wind: No wind

Location: Rionegro / J. M. Cordova

Current Time: Oct 4, 2015 at 1:07:40 AM

Latest Report: Oct 4, 2015 at 12:00 AM

Visibility: N/A

Pressure: 30.29 "Hg (25.43 "Hg at 1479m altitude)

Humidity: 88%

Dew point: 57 °F

Location of MedellinLocation

Historic Weather in Medellin — Graph


Medellin temperature yesterday

Maximum temperature yesterday: 70 °F (at 5:00 PM)
Minimum temperature yesterday: 59 °F (at 5:00 AM)
Average temperature yesterday: 62 °F

Past Weeks' High & Low Weather Summary

High77 °F (Sep 21, 1:00 PM)100% (Sep 19, 4:00 AM)30.38 "Hg (Sep 19, 4:00 AM)
Low54 °F (Sep 26, 3:00 AM)29% (Sep 28, 2:00 PM)30.13 "Hg (Sep 22, 4:00 PM)
Average64 °F76%30.25 "Hg
* Reported Midnight between Sep 18 and Sep 19 — Midnight between Oct 3 and Oct 4, Medellin, Weather by CustomWeather, © 2015

Note: Actual official high and low records may vary slightly from our data, if they occured in-between our weather recording intervals... More about our weather records


Medellin weather history for previous 24 hours

Time TempWeatherWind HumidityBarometerVisibility
12:00 AM
Sun, Oct 4
61 °FPassing clouds.No wind88%30.29 "HgN/A
11:00 PM
Sat, Oct 3
61 °FPassing clouds.No wind94%30.29 "HgN/A
10:00 PM61 °FPassing clouds.No wind88%30.29 "HgN/A
9:00 PM61 °FPassing clouds.No wind88%30.28 "HgN/A
8:00 PM61 °FPassing clouds.No wind83%30.25 "HgN/A
7:00 PM64 °FPassing clouds.No wind73%30.20 "HgN/A
6:00 PM68 °FPassing clouds.5 mph60%30.19 "HgN/A
5:00 PM70 °FScattered clouds.5 mph57%30.17 "HgN/A
4:00 PM68 °FScattered clouds.6 mph64%30.18 "HgN/A
3:00 PM68 °FScattered clouds.5 mph64%30.20 "HgN/A
2:00 PM66 °FBroken clouds.No wind68%30.22 "HgN/A
1:00 PM64 °FPartly sunny.No wind73%30.25 "HgN/A
12:00 PM63 °FBroken clouds.No wind77%30.30 "HgN/A
11:00 AM61 °FDrizzle. More clouds than sun.No wind88%N/A5 mi
10:00 AM59 °FDrizzle. Mostly cloudy.3 mph94%30.37 "Hg4 mi
9:00 AM59 °FDrizzle. Mostly cloudy.3 mph94%30.36 "Hg4 mi
8:00 AM59 °FDrizzle. Mostly cloudy.5 mph88%30.34 "Hg4 mi
7:00 AM59 °FDrizzle. Mostly cloudy.3 mph94%30.29 "Hg4 mi
6:00 AM59 °FBroken clouds.2 mph88%30.26 "HgN/A
5:00 AM59 °FPartly cloudy.No wind88%30.24 "HgN/A
4:00 AM61 °FPartly cloudy.No wind88%30.23 "Hg5 mi
3:00 AM61 °FPassing clouds.No wind94%30.22 "Hg6 mi
2:00 AM61 °FPassing clouds.No wind94%30.24 "Hg6 mi
1:00 AM61 °FPassing clouds.No wind94%30.25 "Hg6 mi
Weather by CustomWeather, © 2015

See weather overviewHow to use our weather pages